EW9058 Weather Reports


time (UTC)temp
F
wind
direction
speed
knots
gust
knots
rain 1hr
in
rain 24hr
in
rain mn
in
humidity
%
barometer
mb
20191122213017 77 190 0.0 3.5 0.00 0.00 0.00 93 1010.0
20191122210017 77 190 0.9 4.3 0.00 0.00 0.00 93 1009.8
20191122203017 77 190 0.9 4.3 0.00 0.00 0.00 94 1009.7
20191122200018 78 189 1.7 4.3 0.00 0.00 0.00 93 1009.5
20191122193017 77 190 0.9 4.3 0.00 0.00 0.00 94 1009.4
20191122190018 78 190 0.0 3.5 0.00 0.00 0.00 93 1009.4
20191122183017 78 190 0.0 3.5 0.00 0.00 0.00 93 1009.6
20191122180017 78 190 0.9 3.5 0.00 0.00 0.00 92 1009.8
20191122173017 78 190 0.0 4.3 0.00 0.00 0.00 91 1010.2
20191122170017 78 190 0.9 4.3 0.00 0.00 0.00 90 1010.4
20191122163017 78 190 0.0 4.3 0.00 0.00 0.00 90 1010.6
20191122160017 78 190 0.9 4.3 0.00 0.00 0.00 90 1011.0
20191122153016 79 190 0.9 4.3 0.00 0.00 0.00 90 1011.3
20191122150017 78 190 0.9 4.3 0.00 0.00 0.00 91 1011.2
20191122143016 79 190 0.0 2.6 0.00 0.00 0.00 91 1011.4
20191122140016 79 190 0.0 6.1 0.00 0.00 0.00 90 1011.4
20191122133018 80 189 1.7 6.1 0.00 0.00 0.00 88 1011.3
20191122130017 80 189 2.6 6.1 0.00 0.00 0.00 87 1011.3
20191122123018 81 189 2.6 7.0 0.00 0.00 0.00 86 1011.1
20191122120018 81 190 2.6 9.6 0.00 0.00 0.00 86 1011.0
20191122113017 81 189 3.5 9.6 0.00 0.00 0.00 86 1010.9
20191122110017 81 189 2.6 7.8 0.00 0.00 0.00 85 1010.3
20191122103018 82 189 3.5 7.8 0.00 0.00 0.00 85 1009.9
20191122100017 82 189 3.5 8.7 0.00 0.00 0.00 84 1009.7
20191122093018 83 189 2.6 10.4 0.00 0.00 0.00 82 1009.4
20191122090017 84 189 4.3 10.4 0.00 0.00 0.00 81 1009.2
20191122083017 84 189 4.3 10.4 0.00 0.00 0.00 81 1008.9
20191122080017 85 190 4.3 11.3 0.00 0.00 0.00 79 1008.7
20191122073017 86 190 5.2 11.3 0.00 0.00 0.00 76 1008.4
20191122070017 88 190 4.3 10.4 0.00 0.00 0.00 69 1008.2
20191122063017 87 189 3.5 7.8 0.00 0.00 0.00 69 1008.4
20191122060017 87 189 2.6 8.7 0.00 0.00 0.00 71 1008.7
20191122053016 87 189 4.3 9.6 0.00 0.00 0.00 72 1009.1
20191122050018 87 189 4.3 9.6 0.00 0.00 0.00 72 1009.6
20191122043017 85 190 4.3 9.6 0.00 0.00 0.00 78 1010.2
20191122040017 85 189 3.5 8.7 0.00 0.00 0.00 79 1010.7
20191122033017 85 189 4.3 9.6 0.00 0.00 0.00 80 1011.0
20191122030017 84 189 3.5 9.6 0.00 0.00 0.00 82 1011.5
20191122023017 84 190 4.3 9.6 0.00 0.00 0.00 82 1011.8
20191122020017 84 190 4.3 9.6 0.00 0.00 0.00 82 1012.1
20191122013017 83 190 4.3 9.6 0.00 0.00 0.00 82 1012.1